sat.trackr.live / text

‹ back to catalog

STARLINK-5677

NORAD 55463 · 2023-015Q

PAYLOAD ACTIVE UNKNOWN

§ Identity

Operator
Country
US
Launch date
2023-02-02
Launch site
AFETR
Launch vehicle
Mass (kg)
RCS (m²)

Purposes: comms

External: N2YO · Heavens-Above · Gunter

§ Orbital elements

Epoch: 2026-05-25T00:23:21.403680Z

Period
94.94 min
Inclination
43.0001°
Eccentricity
0.0004046
Mean motion
15.16727792 rev/d
Perigee alt
512.9 km
Apogee alt
518.5 km
Semi-major
6,893.9 km
B*
1.0050e-3
RAAN
263.7766°
Arg perigee
313.9692°
Mean anomaly
46.0821°
Rev number
18,232

§ Raw data

STARLINK-56771 55463U 23015Q   26145.01621995  .00019893  00000+0  10050-2 0  99922 55463  43.0001 263.7766 0004046 313.9692  46.0821 15.16727792182321

JSON: /api/v1/satellites/55463 · /tle

For live sub-satellite position, see the globe view (requires WebGL).

§ Visibility from observer

Set your observer location to see the next 7 days of passes ≥ 10°. The values pass through the URL so the page stays shareable.

No JS? Fill the form by hand. The geolocation button needs JavaScript.